GSAT0232 (GALILEO 32)

Last updated on Sun Nov 17 2024 00:02:30 GMT+0000 (Coordinated Universal Time)

1 61182U 24167A 24321.21686440 -.00000004 00000+0 00000+0 0 9994 2 61182 55.3884 237.1378 0015743 276.0571 83.7985 1.73178105 1028
UTC large
Height (km)
Speed (km/s)
/
Latitude / Longitude
Inclination (degrees)
Orbital Period (minutes)
Azimuth
Elevation
Range (km)
Doppler Factor

Next 0 passes for location: London (51.5072 / 0.1276)

Sorry there are no passes over London.